星链-30522 (STARLINK-30522 )

导读 | 豆包AI

STARLINK-30522是美国太空探索技术公司(SpaceX)星链计划的低轨互联网卫星,于2023年10月5日发射入轨。星链计划旨在构建近地轨道卫星星座,为全球提供高速卫星互联网服务,尤其填补偏远地区网络覆盖空白。该卫星质量约数百千克,运行在数百公里高度的近地轨道,是星链星座不断扩容中的一员,助力实现全球无缝网络覆盖的目标,同时也服务于SpaceX未来深空探测网络布局。

基本信息
目录编号:
58008
目录名称:
STARLINK-30522
国际标识:
2023-153T
轨道中心:
EARTH
卫星名称:
星链-30522
卫星全名:
星链-30522 (STARLINK-30522 )
卫星状态:
在轨 (已飞行938 天)
发射日期:
2023-10-05 UTC
国别 :
美国 (US)
星等 :
--
轨道信息
数据来源 国际轨道数据
星历时间: 2026-04-30T10:07:36+0800
15小时前
查看轨道信息
半长轴: 6861.188km
偏心率: 0.0001248
轨道倾角: 43.004°
近地点辐角 273.530°
升交点赤经 137.068°
平近点角 86.541°
近地点: 482.194km
远地点: 483.908km
周期: 94.267分钟
每日圈数: 15.275794
详细信息
固有亮度:
5
最大亮度:
0.3
卫星平台:
Starlink v2.0 mini
覆盖范围:
全球
运营商:
太空探索技术公司
运营商所在国:
美国
制造商(研发单位):
太空探索技术公司
制造商所在国:
美国
使用方式:
暂无
卫星简介
星链(Starlink)计划是由太空探索技术公司(SpaceX)提出的一个巨型低轨卫星互联网星座项目,计划在2019年至2024年间在太空搭建由约1.2万颗卫星组成的“星链”网络,其中1584颗将部署在地球上空550千米处的近地轨道,并从2020年开始工作。该卫星仍在工作。
2D轨道图
3D轨道图
轨道高度分析图
轨道倾角分析图
轨道综合分析图
查看轨道综合分析图